Portage, MI

2:07 PM EST on February 10, 2016 (GMT -0500)
Kalamazoo-Battle Creek International

Weather History for KAZO - January, 1990

Change the Weather History Date:

Monday, January 15, 1990

  Actual Average Record
Temperature  
Mean Temperature 38 °F 24 °F  
Max Temperature 46 °F 31 °F 57 °F (1953)
Min Temperature 30 °F 18 °F -15 °F (1979)
Degree Days  
Heating Degree Days 27 41  
Month to date heating degree days 607  
Since 1 July heating degree days 3058  
Cooling Degree Days 0 0  
Month to date cooling degree days 0  
Year to date cooling degree days 0  
Moisture  
Dew Point 32 °F    
Average Humidity 80    
Maximum Humidity 93    
Minimum Humidity 58    
Precipitation  
Precipitation 0.00 in 0.05 in 0.68 in (1962)
Month to date precipitation 0.86  
Year to date precipitation 0.86  
Sea Level Pressure  
Sea Level Pressure 30.07 in    
Wind  
Wind Speed 8 mph (SSW)    
Max Wind Speed 12 mph    
Max Gust Speed -    
Visibility 5 miles    
Events Fog    
T = Trace of Precipitation, MM = Missing Value Source: NWS Daily Summary

Daily Weather History Graph

Daily Weather History Graph

Search for Another Location

Airport or City:

Trip Planner

Search our weather history database for the weather conditions in past years. The results will help you decide how hot, cold, wet, or windy it might be!

Date:

Astronomy

Jan. 15, 1990 Rise Set
Actual Time 8:08 AM EST 5:35 PM EST
Civil Twilight 7:37 AM EST 6:06 PM EST
Nautical Twilight 7:02 AM EST 6:40 PM EST
Astronomical Twilight 6:29 AM EST 7:14 PM EST
Moon 10:45 PM EST (1/15) 10:24 AM EST (1/15)
Length of Visible Light 10h 28m
Length of Day
9h 26m
Waning Gibbous, 79% of the Moon is Illuminated
Jan 15
Waning Gibbous
Jan 18
Last Quarter
Jan 26
New
Feb 2
First Quarter
Feb 9
Full

Hourly Weather History & Observations

Time (EST) Temp. Windchill Dew Point Humidity Pressure Visibility Wind Dir Wind Speed Gust Speed Precip Events Conditions
6:00 AM 31.1 °F 23.1 °F 28.2 °F 89% 29.97 in 10.0 mi SSW 9.2 mph - N/A   Scattered Clouds
7:00 AM 30.2 °F 24.3 °F 28.2 °F 92% 29.99 in 6.0 mi SSW 5.8 mph - N/A Fog Fog
7:45 AM 31.1 °F 24.5 °F 29.1 °F 92% 30.01 in 10.5 mi SSW 6.9 mph - N/A Fog Fog
8:00 AM 31.1 °F 24.5 °F 29.1 °F 92% 30.01 in 10.5 mi SSW 6.9 mph - N/A Fog Fog
9:00 AM 31.1 °F 26.4 °F 29.1 °F 92% 30.03 in 5.5 mi South 4.6 mph - N/A Fog Fog
10:00 AM 36.0 °F 29.6 °F 31.1 °F 82% 30.04 in 2.0 mi SSW 8.1 mph - N/A Fog Fog
11:00 AM 37.9 °F 30.5 °F 32.0 °F 79% 30.06 in 4.0 mi SW 11.5 mph - N/A Fog Fog
12:00 PM 39.9 °F 33.9 °F 32.0 °F 73% 30.06 in 5.0 mi SSW 9.2 mph - N/A   Drizzle
1:00 PM 42.1 °F 36.6 °F 33.1 °F 70% 30.05 in 5.0 mi South 9.2 mph - N/A   Drizzle
2:00 PM 44.1 °F 38.1 °F 32.0 °F 63% 30.04 in 5.0 mi WSW 11.5 mph - N/A   Drizzle
3:00 PM 45.0 °F 39.3 °F 33.1 °F 63% 30.04 in 5.0 mi SW 11.5 mph - N/A   Drizzle
4:00 PM 46.0 °F 40.6 °F 32.0 °F 58% 30.05 in 5.0 mi SW 11.5 mph - N/A   Drizzle
5:00 PM 45.0 °F 40.1 °F 32.0 °F 60% 30.07 in 5.0 mi SW 9.2 mph - N/A   Drizzle
6:00 PM 39.9 °F 35.8 °F 32.0 °F 73% 30.08 in 5.0 mi South 5.8 mph - N/A   Drizzle
7:00 PM 39.9 °F 33.9 °F 35.1 °F 83% 30.10 in 7.0 mi SW 9.2 mph - N/A   Scattered Clouds
8:00 PM 37.9 °F 32.1 °F 35.1 °F 89% 30.12 in 7.0 mi SW 8.1 mph - N/A   Scattered Clouds
9:00 PM 37.9 °F 31.5 °F 36.0 °F 93% 30.14 in 3.0 mi SSW 9.2 mph - N/A Fog Fog
9:15 PM - - - N/A% 30.14 in 2.0 mi SSW 11.5 mph - N/A Fog Fog
10:00 PM 39.9 °F 35.1 °F 37.0 °F 89% 30.15 in 2.0 mi South 6.9 mph - N/A Fog Fog
11:00 PM 39.9 °F 33.9 °F 37.9 °F 93% 30.15 in 2.0 mi South 9.2 mph - N/A Fog Fog